Content
SEND FEEDBACK

Daily
Averages
Monthly
Summary
United States of America

CONEJOS, COLORADO


Home > North America > United States > Colorado
Elevation: 2395 meters     Latitude: 37 08N     Longitude: 106 02W

WEATHER
 
SELECT A DAY
Number of Records: 191,302;   Date Range: 1/1/95 - 7/29/14
 
SHARE

PRINT THIS DATA

[ ← Previous Day ]
WEATHER ALMANAC - 31 JANUARY, 2013
[ Next Day → ]
[ °F ]   °C
Weather ElementAverageHighLow
Temperature-6.1 °C4.4 °C (3:52 pm)-16.1 °C (6:52 am)
Dewpoint-12.6 °C-8.3 °C (5:52 pm)-18.3 °C (6:52 am)
Humidity65.5 %88 % (4:52 am)28 % (3:52 pm)
Barometer1026.4 hPa1030.1 hPa (6:52 pm)1022.4 hPa (1:52 am)
Wind Speed6.4 km/h14.8 km/h (9:52 pm)
Weather ElementAverage
Visibility16.1 km
Wind DirectionSE (139.1 °)

Weather ElementTotal
Precipitation---
Heating Degree Days24.2 (Base 18.3)
Averaged from 23 records on 31 January, 2013
WEATHER CONDITIONS BREAKOUT
WIND DIRECTION BREAKOUT
WEATHER BY HOUR - 31 JANUARY, 2013
[ °F ]   °C
Local TimeTemperatureDewpointHumidityBarometerVisibilityWind DirectionWind SpeedGust SpeedPrecipitationEventsConditions
1:52 AM-11.7 °C-14.4 °C81 %1022.4 hPa16.1 kmSSW (200°)11.1 km/hMostly Cloudy
2:52 AM-11.7 °C-14.4 °C81 %1022.7 hPa16.1 kmVariable5.6 km/hScattered Clouds
3:52 AM-15 °C-16.7 °C87 %1024 hPa16.1 kmEast (80°)5.6 km/hClear
4:52 AM-15.6 °C-17.2 °C88 %1024.4 hPa16.1 kmCalmClear
5:52 AM-14.4 °C-16.7 °C83 %1026.4 hPa16.1 kmESE (120°)9.3 km/hClear
6:52 AM-16.1 °C-18.3 °C84 %1028.4 hPa16.1 kmSSE (150°)7.4 km/hClear
7:52 AM-12.8 °C-15 °C84 %1028.4 hPa16.1 kmSE (140°)9.3 km/hClear
8:52 AM-6.7 °C-10.6 °C74 %1028.1 hPa16.1 kmSSE (150°)5.6 km/hClear
9:52 AM-2.2 °C-8.9 °C61 %1027.1 hPa16.1 kmSSW (200°)13 km/hClear
10:52 AM0 °C-10.6 °C45 %1027.4 hPa16.1 kmSouth (190°)9.3 km/hClear
11:52 AM2.2 °C-12.2 °C34 %1027.1 hPa16.1 kmCalmClear
12:52 PM1.7 °C-12.2 °C35 %1026.1 hPa16.1 kmCalmClear
1:52 PM2.8 °C-12.8 °C31 %1025.1 hPa16.1 kmCalmClear
2:52 PM3.3 °C-12.2 °C32 %1024.4 hPa16.1 kmNNW (330°)5.6 km/hClear
3:52 PM4.4 °C-12.8 °C28 %1025.4 hPa16.1 kmNorth (360°)5.6 km/hClear
4:52 PM2.8 °C-11.7 °C34 %1026.4 hPa16.1 kmVariable5.6 km/hClear
5:52 PM-2.2 °C-8.3 °C63 %1028.4 hPa16.1 kmCalmClear
6:52 PM-6.7 °C-9.4 °C81 %1030.1 hPa16.1 kmCalmClear
7:52 PM-6.7 °C-9.4 °C81 %1028.8 hPa16.1 kmSSE (160°)11.1 km/hClear
8:52 PM-8.3 °C-11.1 °C81 %1027.8 hPa16.1 kmNW (310°)11.1 km/hClear
9:52 PM-7.2 °C-10.6 °C77 %1026.4 hPa16.1 kmNNW (340°)14.8 km/hClear
10:52 PM-7.8 °C-11.1 °C78 %1026.4 hPa16.1 kmNNW (340°)7.4 km/hClear
11:52 PM-11.1 °C-13.3 °C84 %1026.8 hPa16.1 kmSE (130°)9.3 km/hClear
Hourly data recorded from KALS, located 0 kilometers away from Conejos, Colorado







STORIES FROM OUR PARTNERS